Weather History for Pipestone, MN

Change the Weather History Date:

Tuesday, June 25, 2013

  Actual Average Record
Temperature  
Mean Temperature 76 °F -  
Max Temperature 87 °F 78 °F 93 °F (2001)
Min Temperature 66 °F 57 °F 42 °F (2004)
Cooling Degree Days 12    
Growing Degree Days 26 (Base 50)    
Moisture  
Dew Point 66 °F    
Average Humidity 75    
Maximum Humidity 100    
Minimum Humidity 43    
Precipitation  
Precipitation 0.00 in - - ()
Sea Level Pressure  
Sea Level Pressure 29.75 in    
Wind  
Wind Speed 7 mph (SSE)    
Max Wind Speed 16 mph    
Max Gust Speed 22 mph    
Visibility 9 miles    
Events      
Averages and records for this station are not official NWS values.
T = Trace of Precipitation, MM = Missing Value Source: NWS Daily Summary

Daily Weather History Graph

Daily Weather History Graph

Search for Another Location

Airport:

Trip Planner

Search our weather history database for the weather conditions in past years. The results will help you decide how hot, cold, wet, or windy it might be!

Date:

Astronomy

Jun. 25, 2013 Rise Set
Actual Time 5:43 AM CDT 9:12 PM CDT
Civil Twilight 5:07 AM CDT 9:48 PM CDT
Nautical Twilight 4:19 AM CDT 10:36 PM CDT
Astronomical Twilight 3:18 AM CDT 11:36 PM CDT
Moon 10:50 PM CDT (6/25) 8:30 AM CDT (6/25)
Length of Visible Light 16h 41m
Length of Day
15h 28m
Waning Gibbous, 92% of the Moon is Illuminated
Jun 25
Waning Gibbous
Jun 29
Last Quarter
Jul 8
New
Jul 15
First Quarter
Jul 22
Full

Hourly Weather History & Observations

Time (CDT) Temp. Heat Index Dew Point Humidity Pressure Visibility Wind Dir Wind Speed Gust Speed Precip Events Conditions
12:13 AM 69.8 °F - 66.2 °F 88% 29.78 in 10.0 mi SSE 5.8 mph - N/A   Clear
12:33 AM 69.8 °F - 66.2 °F 88% 29.79 in 10.0 mi SSE 5.8 mph - N/A   Clear
12:53 AM 69.8 °F - 66.2 °F 88% 29.80 in 10.0 mi SE 5.8 mph - N/A   Scattered Clouds
1:13 AM 68.0 °F - 66.2 °F 94% 29.80 in 10.0 mi SSE 5.8 mph - N/A   Clear
1:33 AM 69.8 °F - 66.2 °F 88% 29.80 in 10.0 mi South 6.9 mph - N/A   Scattered Clouds
1:53 AM 69.8 °F - 66.2 °F 88% 29.79 in 10.0 mi SSE 5.8 mph - N/A   Scattered Clouds
2:13 AM 68.0 °F - 66.2 °F 94% 29.79 in 10.0 mi SE 5.8 mph - N/A   Clear
2:33 AM 66.2 °F - 64.4 °F 94% 29.78 in 10.0 mi SE 5.8 mph - N/A   Clear
2:53 AM 66.2 °F - 64.4 °F 94% 29.77 in 10.0 mi ESE 6.9 mph - N/A   Clear
3:13 AM 66.2 °F - 64.4 °F 94% 29.77 in 10.0 mi SE 6.9 mph - N/A   Clear
3:33 AM 66.2 °F - 64.4 °F 94% 29.76 in 7.0 mi SE 6.9 mph - N/A   Clear
3:53 AM 66.2 °F - 64.4 °F 94% 29.76 in 7.0 mi SE 6.9 mph - N/A   Clear
4:14 AM 66.2 °F - 64.4 °F 94% 29.75 in 7.0 mi SE 6.9 mph - N/A   Clear
4:33 AM 66.2 °F - 64.4 °F 94% 29.74 in 7.0 mi East 8.1 mph - N/A   Clear
4:53 AM 66.2 °F - 64.4 °F 94% 29.74 in 7.0 mi East 5.8 mph - N/A   Clear
5:14 AM 66.2 °F - 64.4 °F 94% 29.74 in 7.0 mi ESE 8.1 mph - N/A   Clear
5:33 AM 66.2 °F - 64.4 °F 94% 29.75 in 7.0 mi ESE 5.8 mph - N/A   Clear
5:53 AM 66.2 °F - 64.4 °F 94% 29.76 in 5.0 mi ESE 6.9 mph - N/A   Clear
6:13 AM 66.2 °F - 64.4 °F 94% 29.77 in 5.0 mi SE 5.8 mph - N/A   Scattered Clouds
6:33 AM 66.2 °F - 64.4 °F 94% 29.78 in 5.0 mi SE 10.4 mph - N/A   Scattered Clouds
6:53 AM 66.2 °F - 66.2 °F 100% 29.76 in 4.0 mi ESE 13.8 mph - N/A   Mostly Cloudy
7:13 AM 68.0 °F - 66.2 °F 94% 29.75 in 3.0 mi SE 6.9 mph - N/A   Overcast
7:33 AM 68.0 °F - 66.2 °F 94% 29.76 in 2.5 mi ESE 5.8 mph - N/A   Overcast
7:53 AM 68.0 °F - 66.2 °F 94% 29.76 in 2.0 mi SE 10.4 mph - N/A   Overcast
8:13 AM 69.8 °F - 68.0 °F 94% 29.75 in 4.0 mi SE 11.5 mph - N/A   Overcast
8:33 AM 69.8 °F - 68.0 °F 94% 29.75 in 4.0 mi SE 6.9 mph - N/A   Overcast
8:53 AM 71.6 °F - 68.0 °F 88% 29.76 in 5.0 mi ESE 8.1 mph - N/A   Mostly Cloudy
9:13 AM 71.6 °F - 69.8 °F 94% 29.75 in 7.0 mi ESE 8.1 mph - N/A   Scattered Clouds
9:34 AM 73.4 °F - 69.8 °F 88% 29.75 in 10.0 mi SE 8.1 mph - N/A   Clear
9:53 AM 75.2 °F - 69.8 °F 83% 29.76 in 10.0 mi SE 8.1 mph - N/A   Clear
10:13 AM 75.2 °F - 71.6 °F 89% 29.78 in 10.0 mi SSE 11.5 mph - N/A   Scattered Clouds
10:33 AM 75.2 °F - 69.8 °F 83% 29.79 in 10.0 mi South 16.1 mph - N/A   Mostly Cloudy
10:53 AM 77.0 °F - 69.8 °F 78% 29.79 in 10.0 mi South 16.1 mph 21.9 mph N/A   Mostly Cloudy
11:13 AM 78.8 °F - 69.8 °F 74% 29.78 in 10.0 mi South 15.0 mph 18.4 mph N/A   Scattered Clouds
11:33 AM 78.8 °F - 68.0 °F 69% 29.77 in 10.0 mi SW 10.4 mph - N/A   Clear
11:53 AM 80.6 °F 82.7 °F 66.2 °F 61% 29.75 in 10.0 mi SSE 3.5 mph - N/A   Clear
12:13 PM 82.4 °F 84.6 °F 66.2 °F 58% 29.74 in 10.0 mi SSE 5.8 mph - N/A   Clear
12:33 PM 84.2 °F 85.6 °F 64.4 °F 51% 29.75 in 10.0 mi SSW 8.1 mph - N/A   Clear
12:53 PM 86.0 °F 87.3 °F 64.4 °F 48% 29.75 in 10.0 mi SW 8.1 mph - N/A   Clear
1:13 PM 86.0 °F 87.3 °F 64.4 °F 48% 29.74 in 10.0 mi WSW 10.4 mph - N/A   Clear
1:33 PM 86.0 °F 86.6 °F 62.6 °F 45% 29.74 in 10.0 mi WSW 11.5 mph - N/A   Clear
1:53 PM 86.0 °F 86.6 °F 62.6 °F 45% 29.74 in 10.0 mi SW 11.5 mph - N/A   Clear
2:13 PM 86.0 °F 87.3 °F 64.4 °F 48% 29.74 in 10.0 mi West 6.9 mph - N/A   Clear
2:33 PM 87.8 °F 88.5 °F 62.6 °F 43% 29.74 in 10.0 mi SW 6.9 mph - N/A   Clear
2:53 PM 87.8 °F 89.4 °F 64.4 °F 46% 29.73 in 10.0 mi SSW 8.1 mph - N/A   Clear
3:13 PM 84.2 °F 85.0 °F 62.6 °F 48% 29.73 in 10.0 mi SSW 10.4 mph 16.1 mph N/A   Clear
3:33 PM 86.0 °F 87.3 °F 64.4 °F 48% 29.74 in 10.0 mi South 10.4 mph - N/A   Clear
3:53 PM 87.8 °F 88.5 °F 62.6 °F 43% 29.74 in 10.0 mi South 12.7 mph 19.6 mph N/A   Clear
4:14 PM 84.2 °F 85.0 °F 62.6 °F 48% 29.74 in 10.0 mi SSW 11.5 mph - N/A   Clear
4:33 PM 84.2 °F 85.0 °F 62.6 °F 48% 29.74 in 10.0 mi South 9.2 mph - N/A   Clear
4:53 PM 84.2 °F 85.0 °F 62.6 °F 48% 29.74 in 10.0 mi SSW 16.1 mph - N/A   Clear
5:14 PM 84.2 °F 85.6 °F 64.4 °F 51% 29.73 in 10.0 mi SSW 12.7 mph - N/A   Clear
5:33 PM 82.4 °F 83.4 °F 62.6 °F 51% 29.73 in 10.0 mi South 9.2 mph - N/A   Clear
5:53 PM 84.2 °F 85.0 °F 62.6 °F 48% 29.73 in 10.0 mi South 9.2 mph - N/A   Clear
6:14 PM 84.2 °F 85.6 °F 64.4 °F 51% 29.73 in 10.0 mi South 8.1 mph - N/A   Clear
6:33 PM 82.4 °F 83.9 °F 64.4 °F 54% 29.73 in 10.0 mi SSE 8.1 mph - N/A   Clear
6:53 PM 82.4 °F 84.6 °F 66.2 °F 58% 29.72 in 10.0 mi SE 5.8 mph - N/A   Clear
7:13 PM 84.2 °F 86.6 °F 66.2 °F 55% 29.72 in 10.0 mi South 8.1 mph - N/A   Clear
7:33 PM 82.4 °F 85.4 °F 68.0 °F 62% 29.72 in 10.0 mi South 6.9 mph - N/A   Scattered Clouds
7:53 PM 82.4 °F 86.3 °F 69.8 °F 66% 29.72 in 10.0 mi SW 8.1 mph - N/A   Scattered Clouds
8:13 PM 80.6 °F 83.9 °F 69.8 °F 70% 29.72 in 10.0 mi SSW 4.6 mph - N/A   Clear
8:33 PM 78.8 °F - 69.8 °F 74% 29.72 in 10.0 mi SSW 5.8 mph - N/A   Clear
8:53 PM 78.8 °F - 69.8 °F 74% 29.72 in 10.0 mi SSW 3.5 mph - N/A   Clear
9:13 PM 77.0 °F - 71.6 °F 83% 29.72 in 10.0 mi SSW 3.5 mph - N/A   Clear
9:33 PM 75.2 °F - 69.8 °F 83% 29.72 in 10.0 mi SSW 4.6 mph - N/A   Clear
9:53 PM 75.2 °F - 69.8 °F 83% 29.72 in 10.0 mi South 4.6 mph - N/A   Clear
10:13 PM 73.4 °F - 69.8 °F 88% 29.73 in 10.0 mi SSW 5.8 mph - N/A   Clear
10:33 PM 73.4 °F - 69.8 °F 88% 29.73 in 10.0 mi South 4.6 mph - N/A   Clear
10:53 PM 75.2 °F - 69.8 °F 83% 29.72 in 10.0 mi South 5.8 mph - N/A   Clear
11:13 PM 75.2 °F - 68.0 °F 78% 29.72 in 10.0 mi South 5.8 mph - N/A   Clear
11:33 PM 73.4 °F - 69.8 °F 88% 29.72 in 10.0 mi South 5.8 mph - N/A   Clear
11:53 PM 73.4 °F - 68.0 °F 83% 29.72 in 10.0 mi South 4.6 mph - N/A   Clear